Current Version              Previous Version:    01  02  03  04  05  06  07  08  09  10  11  12  13  14  15  16  17  18  19  20  21  22  23  24  25  26  27  28  29  30  
   31  32  33  34  35  36  37  38  39  40  41  42  43  44  45  46  47  48  49  50  51  52  53  54  55  56  57  58  59  60  

[Printable]
950
ASUS44 KEWX 011010
RWRTX
SOUTH TEXAS REGIONAL WEATHER ROUNDUP
NATIONAL WEATHER SERVICE AUSTIN/SAN ANTONIO TX
500 AM CDT MON SEP 01 2014

NOTE: "FAIR" INDICATED FEW OR NO CLOUDS BELOW 12,000 FEET WITH NO
SIGNIFICANT WEATHER AND/OR OBSTRUCTIONS TO VISIBILITY.

* - THESE STATIONS ARE NOT NWS OR FAA STATIONS...AND ARE NOT SUBJECT
    TO NWS AND FAA QUALITY CONTROL.

TXZ171-172-183>190-011100-
TEXAS HILL COUNTRY AND EDWARDS PLATEAU

CITY           SKY/WX    TMP DP  RH WIND       PRES   REMARKS
JUNCTION       PTCLDY    76  69  79 S7        29.94F
*LLANO         CLEAR     79  70  73 S6        29.96S
BURNET         MOCLDY    77  71  82 S8        29.96S
*HORSESHOE BAY CLEAR     77  70  78 S6        29.93F
*KERRVILLE     CLOUDY    76  72  86 S12       29.96F
*FREDERICKSBRG MOCLDY    74  68  80 S9        29.96F
*ROCKSPRINGS   PTCLDY    73  68  83 SE14      29.98F
*BOERNE STAGE  CLOUDY    77  70  78 S6        29.96F
*CASTROVILLE   CLOUDY    79  72  80 SE5       29.94F
HONDO          CLOUDY    78  73  84 SE7       29.94F
*UVALDE        CLEAR     78  73  86 E5        29.92F
DEL RIO        CLEAR     82  72  71 SE13      29.87F
LAUGHLIN AFB   CLEAR     80  71  74 SE12      29.89F
CARRIZO SPRGS  CLEAR     77  70  78 SE5       29.88S
$$

TXZ173-191>194-202-209-217>225-228-011100-
CENTRAL AND SOUTH CENTRAL TEXAS

CITY           SKY/WX    TMP DP  RH WIND       PRES   REMARKS
GEORGETOWN     CLOUDY    79  73  83 S9        29.95S
AUSTIN/BERGSTM PTCLDY    78  75  90 S8        29.92F
AUSTIN/MABRY   MOCLDY    78  75  90 VRB5      29.93F
*AUSTIN/EXEC   CLOUDY    77  75  94 S6        29.93F
*LAGO VISTA    CLOUDY    77  72  84 S8        29.95F
SAN MARCOS     MOCLDY    77  72  83 SE5       29.95S
NEW BRAUNFELS  MOCLDY    79  75  87 S7        29.92F
RANDOLPH AFB   MOCLDY    78  74  85 S7        29.93F
PT SAN ANTONIO PTCLDY    78  73  85 S7        29.91F
SAN ANTONIO    MOCLDY    80  74  81 S8        29.93F
STINSON FIELD  PTCLDY    79  74  84 S5        29.91F
*PLEASANTON    CLEAR     78  74  88 SE3       29.92S
*LA GRANGE     CLOUDY    78  77  96 CALM      29.92S
*GIDDINGS      CLOUDY    76  74  92 S3        29.97S FOG
*GONZALES      CLOUDY    80  78  94 S6        29.91F
$$

TXZ163>164-176>182-195>201-210>213-226-227-235-011100-
SOUTHEAST TEXAS

CITY           SKY/WX    TMP DP  RH WIND       PRES   REMARKS
COLLEGE STN    CLOUDY    75  74  96 SE5       29.94S
*BRYAN         CLOUDY   N/A N/A N/A SE3       29.94S
*CALDWELL      CLOUDY    75  75 100 S7        29.97S
*CROCKETT      NOT AVBL
*BRENHAM       CLOUDY    76  74  95 CALM      29.94S FOG
HUNTSVILLE     CLOUDY    76  75  97 S6        29.95S
CONROE         FOG       74  73  97 CALM      29.96R VSB 1/2
HOUSTON BUSH   PTCLDY    75  73  94 CALM      29.94S
HOUSTON HOBBY  PTCLDY    77  75  93 SE3       29.93S
*HOUSTON SW AP CLEAR     74  74 100 CALM      29.94S FOG
PEARLAND       CLEAR     76  74  93 CALM      29.95S
HOUSTON HOOKS  PTCLDY    74  72  93 CALM      29.94F FOG
ELLINGTON FLD  MOCLDY    77  77 100 CALM      29.96S
SUGAR LAND     MOCLDY    77  75  93 CALM      29.93S
*HOUSTON EXEC  CLEAR     73  73 100 E5        29.95S FOG
*CLEVELAND MUN FOG       74  74  99 CALM      29.96S VSB 1/2
*WHARTON       CLEAR     75  74  96 CALM      29.93S FOG
$$

TXZ214>216-236>238-011100-
THE UPPER TEXAS COAST

CITY           SKY/WX    TMP DP  RH WIND       PRES   REMARKS
*ORANGE        CLEAR     76  76 100 CALM      29.97S FOG
PORT ARTHUR    CLEAR     79  76  90 SE3       29.95S
GALVESTON      PTCLDY    83  77  82 S9        29.94S HX  92
ANGLETON       CLEAR     74  72  93 CALM      29.93S
*BAY CITY      PTCLDY    76  76 100 SE3       29.92S
PALACIOS       PTCLDY    80  77  90 SE6       29.91S
$$

TXZ229>234-239>247-011100-
TEXAS COASTAL BEND AND RIO GRANDE PLAINS

CITY           SKY/WX    TMP DP  RH WIND       PRES   REMARKS
VICTORIA       PTCLDY    79  77  94 CALM      29.92S FOG
*BEEVILLE      MOCLDY    77  77 100 CALM      29.91R FOG
ROCKPORT       CLEAR     82  77  84 S6        29.90S HX  90
*PORT ARANSAS  MOCLDY    83  78  84 S9        29.90R HX  92
*PORT LAVACA   CLEAR     77  76  96 SE5       29.90  FOG
*INGLESIDE     PTCLDY    82  78  87 SE7       29.89S HX  91
CORPUS CHRISTI PTCLDY    78  77  96 SE5       29.89F
CORPUS NAS     PTCLDY    83  79  88 S6        29.89S HX  94
*ROBSTOWN      PTCLDY    78  77  96 E3        29.90S FOG
ALICE          CLOUDY    76  75  97 E3        29.89S
KINGSVILLE NAS PTCLDY    78  78 100 E3        29.89S FOG
COTULLA        CLEAR     78  73  84 SE6       29.90F
*FAITH RANCH   CLEAR     81  72  74 SE8       29.89F
LAREDO         CLEAR     81  74  79 SE8       29.90F
$$

TXZ248>255-011100-
DEEP SOUTH TEXAS

CITY           SKY/WX    TMP DP  RH WIND       PRES   REMARKS
BROWNSVILLE    PTCLDY    79  78  97 CALM      29.88S
PORT ISABEL    PTCLDY    82  78  88 SE5       29.88S HX  91
*SOUTH PADRE     N/A     82  81  94 SE8       29.88S HX  95
HARLINGEN      PTCLDY    77  77 100 E5        29.87F
*HEBBRONVILLE  CLEAR     78  75  91 SE6       29.91S
MCALLEN        MOCLDY    79  77  94 E5        29.88F
*WESLACO       MOCLDY    79  76  89 CALM      29.88
FALFURRIAS     CLOUDY    69  67  93 CALM      29.88F
EDINBURG       CLEAR     79  75  89 SE3       29.88S FOG
*ZAPATA        CLEAR     79  73  82 SE5       29.87S
$$

TXZ213>215-236>238-242>244-246-247-251-254-255-011100-
CMAN STATIONS

STATION/POSITION TIME  TEMP    WIND        PRES    WAVE
                       AIR SEA DIR/SP/G            HT/PER
                 (UTC) (F)     (DEG/KT/KT) (MB)    (FT/S)
SABINE PASS      1000   82 83  170/  5/  6 1014.3
SEA RIM ST PARK  1000   83     170/  8/  9 1014.6
NORTH JETTY/GLS  1000   84 83  180/ 11/ 14   N/A
EAGLE POINT      1000   82 82  180/  7/  8 1013.7
MORGANS POINT    1000   82     170/  3/  5 1013.6
MISSION/ARANSAS  0900   81     160/ 10     1014.0
PORT O`CONNOR    1000          150/ 10/ 13   N/A
PORT ARANSAS     1000   84 83  140/ 11/ 12 1012.9
MALAQUITE BEACH  1000   84 84  150/ 14/ 15 1011.5
BAFFIN BAY       1000   82 81  150/  8/ 10 1012.0
PORT ISABEL      1000   83 83  110/  4/  5 1012.1
$$

GMZ080-GMZ150>470-011100-
OFFSHORE BUOY REPORTS

STATION/POSITION TIME  TEMP    WIND        PRES    WAVE
                       AIR SEA DIR/SP/G            HT/PER
                 (UTC) (F)     (DEG/KT/KT) (MB)    (FT/S)
20 E GALVESTON   1000   84 85  150/ 12/ 12 1013.3    4/ 7
90 E PT ARANSAS  1000   84 85  140/ 10/ 12 1013.0    4/ 8
35 NE PT MANSFLD 1000   84 85  150/ 14/ 16 1011.3    4/ 7
200 E PT ISABEL  1000   84 84  140/  8/ 10 1012.5    3/ 7
$$